[[{"header":{"parameterUnit":"m.s-1","parameterCategory":1,"la1":30.2991,"la2":30.254,"lo1":-89.0895,"lo2":-89.0444,"dy":0.0017,"dx":0.0017,"nx":28,"ny":28,"refTime":"2023-07-18T09:00:00:Z","depth":0,"parameterNumber":2,"parameterNumberName":"U-component_of_WINDS"},"data":[0,0,0,0,0,0,0,0,0,0,0,0,0,0,0,0,0,0,0,0,0,0,0,0,0,0,0,0,0,0,0,0,0,0,0,0,0,0,0,0,0,0,0,0,0,0,0,0,0,0,0,0,0,0,0,0,0,0,0.1975,0.1976,0,0.2047,0.2048,0.2049,0.2088,0.2088,0.2088,0.2088,0.2166,0.2168,0.217,0,0,0,0,0,0,0,0,0,0,0,0,0,0.1877,0.1878,0.1975,0.1976,0.1977,0.2047,0.2048,0.2049,0.2088,0.2088,0.2088,0.2088,0.2165,0.2168,0.217,0,0,0,0,0,0,0,0,0,0,0,0,0,0.1931,0.1879,0.1975,0.2005,0.2008,0.2047,0.2048,0.2049,0.2088,0.2088,0.2088,0.2088,0.2165,0.2168,0.2171,0.2186,0,0,0.218,0.2181,0,0,0,0,0,0,0,0,0.1928,0.1935,0.2,0.2003,0.2007,0.2059,0.2042,0.2095,0.2088,0.2058,0.2088,0.2088,0.2131,0.2136,0.215,0.219,0.2193,0.218,0.2182,0.2183,0.2184,0,0,0,0,0,0,0,0.1924,0.1932,0.2004,0.2001,0.2005,0.2016,0.2024,0.2052,0.2093,0.206,0.2063,0.2071,0.2133,0.2147,0.2152,0.2195,0.218,0.2182,0.2184,0.2186,0.2253,0.2253,0,0,0,0,0,0,0.1915,0.1928,0.2002,0.2006,0.1967,0.2018,0.2027,0.2042,0.2092,0.21,0.2071,0.2073,0.2141,0.2148,0.2155,0.2177,0.2183,0.2186,0.2188,0.2253,0.2253,0.2253,0,0,0,0,0,0,0.1913,0.1921,0.1999,0.1968,0.1979,0.2019,0.2036,0.2043,0.2057,0.21,0.2108,0.2078,0.2142,0.215,0.2178,0.2181,0.2187,0.219,0.2253,0.2253,0.2253,0.2222,0,0,0,0,0,0,0.191,0.192,0.1925,0.1968,0.198,0.202,0.2036,0.2045,0.2062,0.2065,0.2109,0.2116,0.2143,0.2173,0.2181,0.2185,0.2192,0.2253,0.2253,0.2253,0.2223,0.2221,0.2219,0,0,0,0,0,0.1906,0.1915,0.1925,0.1934,0.1988,0.202,0.2027,0.2056,0.2062,0.2069,0.2096,0.2115,0.2179,0.2176,0.2185,0.219,0.2253,0.2253,0.2253,0.2224,0.2222,0.2219,0,0,0,0,0,0,0.1873,0.1921,0.1933,0.1956,0.1983,0.2026,0.2035,0.2052,0.208,0.2081,0.2118,0.2127,0.2152,0.2173,0.2169,0.2208,0.2218,0.222,0.2193,0.2191,0.2189,0.2184,0.2195,0,0,0,0,0,0.1868,0.1889,0.193,0.1946,0.1959,0.1994,0.2009,0.2029,0.206,0.2072,0.2102,0.2132,0.2159,0.2176,0.2203,0.2226,0.2237,0.2234,0.2232,0.223,0.2232,0.2247,0.2246,0.2253,0.2253,0.2253,0,0,0.1859,0.1887,0.1898,0.194,0.1964,0.1985,0.2004,0.2026,0.2044,0.2076,0.2104,0.2126,0.2163,0.2188,0.2201,0.2207,0.2232,0.223,0.2228,0.2231,0.2246,0.2246,0.2245,0.2253,0.2253,0.2253,0,0,0.1853,0.1876,0.1892,0.1915,0.195,0.1974,0.1977,0.2018,0.2034,0.2062,0.2087,0.2108,0.2154,0.2179,0.2197,0.2201,0.222,0.2209,0.2199,0.2213,0.2213,0.2212,0.2215,0.2215,0.221,0.221,0.221,0,0.1837,0.187,0.1899,0.1919,0.1938,0.1966,0.1984,0.2005,0.2048,0.206,0.2066,0.2124,0.215,0.2182,0.2183,0.2197,0.2204,0.2204,0.221,0.221,0.221,0.2213,0.2214,0.2208,0.2209,0.2209,0.2209,0,0.1849,0.1872,0.1881,0.192,0.1939,0.1958,0.1991,0.2007,0.2025,0.2048,0.2077,0.211,0.2144,0.2153,0.2172,0.2188,0.2191,0.2203,0.2214,0.2208,0.2211,0.2212,0.2206,0.2207,0.2207,0.2208,0,0,0.1826,0.1879,0.1882,0.1901,0.1941,0.196,0.1981,0.2013,0.2027,0.2055,0.2075,0.2112,0.2123,0.2144,0.2166,0.2178,0.218,0.2189,0.219,0.2187,0.2201,0.2193,0.2193,0.2192,0.2192,0.2192,0.2199,0,0.1826,0.1863,0.189,0.1918,0.1939,0.1967,0.1985,0.2013,0.2035,0.2058,0.2084,0.211,0.2123,0.2136,0.2149,0.2177,0.2183,0.2177,0.2212,0.2213,0.2203,0.2195,0.2186,0.219,0.22,0.22,0.22,0,0.1832,0.1858,0.1887,0.1926,0.1936,0.1952,0.1984,0.2005,0.2037,0.2053,0.2076,0.2098,0.2123,0.213,0.2166,0.2161,0.2177,0.2193,0.2194,0.2199,0.2207,0.2201,0.2192,0.2193,0.2202,0.2202,0.2202,0,0.1813,0.1855,0.1879,0.1893,0.1939,0.1949,0.1969,0.2001,0.2019,0.2048,0.206,0.2091,0.2109,0.2133,0.2163,0.2166,0.2196,0.2206,0.2211,0.221,0.2217,0.2216,0.2211,0.2226,0.2226,0.2226,0.2226,0,0.1811,0.1828,0.187,0.1885,0.1905,0.1936,0.1956,0.1978,0.2007,0.2027,0.2053,0.2072,0.211,0.2134,0.2158,0.2184,0.2192,0.2207,0.2213,0.2205,0.2203,0.2216,0.2217,0.2226,0.2226,0.2226,0.2226,0,0.1794,0.1822,0.1849,0.189,0.19,0.1914,0.1949,0.1965,0.1988,0.2014,0.2022,0.2059,0.2089,0.2121,0.2162,0.2178,0.2203,0.2212,0.2191,0.2195,0.2199,0.2198,0.2203,0.2206,0.2217,0.2217,0.2217,0,0.1791,0.1805,0.1846,0.1861,0.1879,0.1903,0.1921,0.1952,0.197,0.2008,0.202,0.2051,0.2077,0.2123,0.2155,0.2187,0.2197,0.2196,0.2202,0.2193,0.2198,0.2197,0.2199,0.2195,0.2195,0.2194,0.2194,0,0.1784,0.1798,0.1822,0.1851,0.1871,0.1896,0.1922,0.1933,0.197,0.1989,0.2019,0.2039,0.208,0.2111,0.2146,0.2168,0.2188,0.2192,0.2195,0.2187,0.2175,0.2183,0.2188,0.2192,0.2192,0.2192,0.2193,0.2193,0.1775,0.1788,0.182,0.1846,0.1868,0.1892,0.1909,0.1934,0.1959,0.1994,0.2011,0.2041,0.2074,0.2123,0.2144,0.2169,0.2175,0.2179,0.218,0.2181,0.2179,0.217,0.2175,0.2176,0.2176,0.2176,0.2176,0,0.177,0.1791,0.1815,0.185,0.1871,0.1885,0.1915,0.1932,0.1958,0.1986,0.2011,0.2046,0.2076,0.211,0.2142,0.2156,0.2165,0.2163,0.2163,0.2168,0.2171,0.2166,0.2155,0.2155,0.2155,0.2155,0.2155,0.2155,0.177,0.1794,0.1811,0.1847,0.1869,0.1897,0.1912,0.1935,0.1958,0.1994,0.2019,0.204,0.2072,0.2106,0.2135,0.2145,0.2156,0.2151,0.2163,0.2166,0.2168,0.2169,0.2164,0.2153,0.2153,0.2158,0.2158,0.2158]},{"header":{"parameterUnit":"m.s-1","parameterCategory":1,"la1":30.2991,"la2":30.254,"lo1":-89.0895,"lo2":-89.0444,"dy":0.0017,"dx":0.0017,"nx":28,"ny":28,"refTime":"2023-07-18T09:00:00:Z","depth":0,"parameterNumber":3,"parameterNumberName":"V-component_of_WINDS"},"data":[0,0,0,0,0,0,0,0,0,0,0,0,0,0,0,0,0,0,0,0,0,0,0,0,0,0,0,0,0,0,0,0,0,0,0,0,0,0,0,0,0,0,0,0,0,0,0,0,0,0,0,0,0,0,0,0,0,0,1.8431,1.8432,0,1.8465,1.8465,1.8465,1.8488,1.8489,1.8489,1.8489,1.8518,1.8519,1.852,0,0,0,0,0,0,0,0,0,0,0,0,0,1.838,1.8381,1.8431,1.8432,1.8432,1.8465,1.8465,1.8465,1.8488,1.8489,1.8489,1.8489,1.8518,1.8519,1.852,0,0,0,0,0,0,0,0,0,0,0,0,0,1.8407,1.8381,1.8431,1.8448,1.8449,1.8464,1.8465,1.8466,1.8488,1.8489,1.8489,1.8489,1.8518,1.8519,1.852,1.852,0,0,1.8523,1.8523,0,0,0,0,0,0,0,0,1.8405,1.8409,1.8445,1.8446,1.8448,1.8473,1.8458,1.8484,1.8488,1.8473,1.8489,1.8489,1.8503,1.8505,1.851,1.8521,1.8523,1.8523,1.8523,1.8524,1.8524,0,0,0,0,0,0,0,1.8403,1.8407,1.8444,1.8445,1.8447,1.8451,1.8455,1.8463,1.8486,1.8475,1.8476,1.848,1.8504,1.8509,1.8511,1.8523,1.8523,1.8524,1.8524,1.8524,1.8531,1.8531,0,0,0,0,0,0,1.84,1.8406,1.8443,1.8445,1.8427,1.8452,1.8456,1.8465,1.8486,1.849,1.848,1.8481,1.8508,1.851,1.8512,1.8511,1.8524,1.8525,1.8525,1.8532,1.8531,1.8531,0,0,0,0,0,0,1.8399,1.8403,1.8442,1.8426,1.8431,1.8452,1.8461,1.8465,1.8471,1.849,1.8494,1.8482,1.8508,1.8511,1.8517,1.8513,1.8525,1.8526,1.8532,1.8531,1.8531,1.8511,0,0,0,0,0,0,1.8397,1.8403,1.8405,1.8426,1.8432,1.8448,1.8461,1.8466,1.8473,1.8475,1.8493,1.8496,1.8509,1.8516,1.8518,1.8514,1.8527,1.8532,1.8532,1.8531,1.8512,1.851,1.8508,0,0,0,0,0,1.8395,1.8398,1.8405,1.8409,1.8436,1.8448,1.8452,1.8467,1.8473,1.8474,1.8485,1.8496,1.8513,1.8516,1.8519,1.8515,1.8533,1.8532,1.8531,1.8513,1.851,1.8508,0,0,0,0,0,0,1.8375,1.8401,1.8409,1.8419,1.8431,1.8452,1.8454,1.8464,1.8474,1.8475,1.8492,1.8496,1.85,1.8508,1.8512,1.8514,1.8524,1.8524,1.8509,1.8507,1.8504,1.8502,1.8527,0,0,0,0,0,1.8372,1.8382,1.8403,1.841,1.8416,1.8434,1.844,1.845,1.8463,1.8468,1.8481,1.8491,1.8498,1.8503,1.8511,1.8513,1.8515,1.8512,1.851,1.8508,1.8507,1.8505,1.8502,1.8528,1.8528,1.8528,0,0,1.8366,1.8381,1.8386,1.8406,1.8417,1.8424,1.8438,1.8446,1.8451,1.8469,1.8476,1.8484,1.8497,1.85,1.8502,1.8507,1.85,1.8507,1.8505,1.8505,1.8504,1.8501,1.8499,1.8527,1.8527,1.8528,0,0,1.8357,1.8371,1.8377,1.8386,1.8402,1.8414,1.8415,1.8433,1.844,1.8447,1.8459,1.8464,1.8478,1.8485,1.849,1.848,1.8489,1.8482,1.8471,1.8468,1.8466,1.8465,1.8458,1.8456,1.8481,1.8481,1.8481,0,1.8347,1.8361,1.8378,1.8384,1.8391,1.8408,1.8411,1.842,1.8437,1.844,1.8446,1.846,1.847,1.8474,1.8471,1.8475,1.8474,1.848,1.8466,1.8464,1.8462,1.8456,1.8454,1.848,1.848,1.848,1.8481,0,1.8345,1.8354,1.8356,1.8373,1.838,1.8385,1.84,1.8404,1.8413,1.8422,1.8426,1.8438,1.8448,1.8449,1.8458,1.8452,1.8455,1.8463,1.8472,1.8459,1.8453,1.8451,1.8479,1.8479,1.8479,1.848,0,0,1.8328,1.8351,1.8352,1.8358,1.8374,1.838,1.8384,1.8394,1.8396,1.8406,1.8407,1.8417,1.8423,1.8429,1.8438,1.8436,1.8423,1.8444,1.8444,1.8438,1.8414,1.8407,1.8404,1.8429,1.8429,1.8429,1.8412,0,1.8321,1.8331,1.8345,1.8349,1.8355,1.8368,1.8371,1.838,1.8388,1.8392,1.8401,1.8406,1.8415,1.8418,1.8417,1.8425,1.8419,1.8427,1.8428,1.8428,1.8424,1.8402,1.8396,1.838,1.841,1.841,1.841,0,1.8316,1.8325,1.8329,1.8342,1.8345,1.8348,1.8355,1.836,1.8369,1.8374,1.8379,1.8389,1.839,1.8399,1.8399,1.8404,1.8405,1.8408,1.8408,1.8408,1.8418,1.8399,1.8375,1.8372,1.8407,1.8407,1.8408,0,1.83,1.8313,1.8317,1.8321,1.8337,1.8338,1.8344,1.8353,1.8356,1.8362,1.8364,1.837,1.8372,1.8375,1.8384,1.839,1.8381,1.8392,1.8384,1.8383,1.8381,1.8381,1.8355,1.8384,1.8384,1.8384,1.8384,0,1.829,1.8292,1.8309,1.8312,1.8312,1.8326,1.8325,1.8333,1.834,1.8341,1.8353,1.8353,1.8366,1.8367,1.8374,1.8371,1.8373,1.8375,1.8377,1.8373,1.8373,1.8374,1.8374,1.8384,1.8384,1.8384,1.8384,0,1.8274,1.8286,1.829,1.8303,1.8306,1.8306,1.8316,1.8317,1.8324,1.8325,1.8326,1.8337,1.8339,1.8348,1.8352,1.8356,1.835,1.8354,1.8347,1.8348,1.8338,1.8338,1.8311,1.8306,1.834,1.8339,1.8339,0,1.8267,1.8268,1.8281,1.8283,1.8288,1.8292,1.8295,1.8307,1.8309,1.8316,1.8315,1.8317,1.832,1.8321,1.8328,1.8329,1.8333,1.8323,1.8333,1.8328,1.833,1.8329,1.8327,1.832,1.832,1.832,1.8319,0,1.8252,1.8257,1.8262,1.8267,1.827,1.8275,1.8281,1.8281,1.8293,1.8294,1.8296,1.8298,1.83,1.8301,1.8303,1.8307,1.8314,1.8316,1.8314,1.831,1.8305,1.8305,1.8339,1.8317,1.8317,1.8317,1.8317,1.8317,1.8239,1.8239,1.8247,1.8251,1.8256,1.8259,1.8259,1.8266,1.8268,1.8271,1.8277,1.8277,1.8281,1.8284,1.8287,1.8285,1.8289,1.8287,1.8286,1.8285,1.8282,1.8306,1.8285,1.8285,1.8285,1.8285,1.8286,0,1.8223,1.8228,1.8231,1.8237,1.8239,1.8246,1.8251,1.8251,1.8251,1.8255,1.8256,1.8255,1.8255,1.8261,1.826,1.8257,1.826,1.8256,1.8256,1.8256,1.8279,1.828,1.8254,1.8254,1.8254,1.8254,1.8254,1.8254,1.8215,1.8215,1.822,1.8221,1.8225,1.8225,1.8227,1.8229,1.8231,1.823,1.823,1.8234,1.8237,1.8236,1.8235,1.8236,1.8234,1.8229,1.8231,1.8252,1.8255,1.8258,1.8259,1.8229,1.8229,1.8208,1.8208,1.8208]}]]